Location: Cahas Mountain Overlook
(37.0833°N, 80.1000°W)
Time: 07:35:49
(UTC-04:00)

Explorer 7 - Pass Details

Date: 09 February 2026
Orbit: 430 x 540 km, 50.2° (Epoch: 14 March)

Event Time Altitude Azimuth Distance (km) Brightness Sun altitude
Rises 21:35:11 0° 307° (NW) 2,584 - -44.2°
Reaches altitude 10° 21:38:37 10° 339° (NNW) 1,732 - -44.9°
Maximum altitude 21:40:12 12° 3° (N) 1,617 - -45.2°
Drops below altitude 10° 21:41:50 10° 27° (NNE) 1,759 - -45.5°
Sets 21:45:23 0° 59° (ENE) 2,674 - -46.2°
